{"data":{"norad_id":57391,"intl_designator":"2023-100F","name":"LEMUR-2-DEVERILL-M-T","alt_names":[],"object_type":"PAYLOAD","status":"ACTIVE","operator":null,"country":"US","launch_date":"2023-07-18","launch_site_code":"RLLB","launch_vehicle":null,"mission":null,"orbit_class":"UNKNOWN","rcs_meters":null,"size_class":null,"mass_kg":null,"dimensions":null,"purposes":["earth_obs"],"wikipedia_slug":null,"has_3d_model":false,"image_url":null,"decayed_at":null,"tle_current":{"epoch":"2026-09-19T03:12:55.100448Z","epoch_age_seconds":132782,"freshness":"FRESH","line1":"1 57391U 23100F   26262.13397107  .00023993  00000+0  52437-3 0  9999","line2":"2 57391  99.4371 328.3574 0005966  82.8807 277.3113 15.44191017175720","mean_motion":15.44191017,"eccentricity":0.0005966,"inclination_deg":99.4371,"raan_deg":328.3574,"arg_perigee_deg":82.8807,"mean_anomaly_deg":277.3113,"bstar":0.00052437,"rev_number":17572,"period_min":93.2527118826,"perigee_km":429.69217081392,"apogee_km":437.82012171604,"semimajor_km":6811.893146265,"source":"CELESTRAK","updated_at":"2026-09-20T09:00:34.869394Z"}}}